PROFILE

 METAR AND TAF INFORMATION
ADDS - METARS form results

(0211 UTC 20 February 2020)
http://aviationweather.gov/metar/data/
 
LFKJ 200200Z AUTO 04006KT CAVOK 06/03 Q1022 NOSIG
LFKJ 200130Z AUTO 02009KT CAVOK 06/04 Q1022
TAF LFKJ 192000Z 1921/2021 03005KT 9999 SCT035 TEMPO 2010/2015 22010KT 

 AIRPORT MAP

 RUNWAY INFORMATION
Runway 02 Runway length 7897 ft Runway width 148 ft
Runway elevation 15 ft Runway displaced threshold 0 ft Runway heading 25
Runway 20 Runway length 7897 ft Runway width 148 ft
Runway elevation 18 ft Runway displaced threshold 744 ft Runway heading 205

 AIRPORT FREQUENCIES
Type AFIS Name AFIS Frequency 119.825 MHZ
Type APP Name AJACCIO AP Frequency 121.05 MHZ
Type ATIS Name AJACCIO AT Frequency 126.925 MHZ
Type GND Name AJACCIO GN Frequency 121.7 MHZ
Type TWR Name AJACCIO TW Frequency 118.075 MHZ

 AIRPORT NEAR NAVIGATION AIDS
Type NDB Name Ajaccio/Campo Dell Oro Frequency 341 KHZ